Weather History for Anchorage Merrill, AK

Change the Weather History Date:

Thursday, October 30, 2014

  Actual Average Record
Temperature  
Mean Temperature 24 °F -  
Max Temperature 30 °F 32 °F 46 °F (1993)
Min Temperature 18 °F 22 °F 14 °F (2001)
Degree Days  
Heating Degree Days 40    
Moisture  
Dew Point 17 °F    
Average Humidity 72    
Maximum Humidity 82    
Minimum Humidity 56    
Precipitation  
Precipitation 0.00 in - - ()
Sea Level Pressure  
Sea Level Pressure 29.52 in    
Wind  
Wind Speed 1 mph (ENE)    
Max Wind Speed 5 mph    
Max Gust Speed -    
Visibility 10 miles    
Events      
Averages and records for this station are not official NWS values.
T = Trace of Precipitation, MM = Missing Value Source: NWS Daily Summary

Daily Weather History Graph

Daily Weather History Graph

Search for Another Location

Airport:

Trip Planner

Search our weather history database for the weather conditions in past years. The results will help you decide how hot, cold, wet, or windy it might be!

Date:

Astronomy

Oct. 30, 2014 Rise Set
Actual Time 9:22 AM AKDT 6:02 PM AKDT
Civil Twilight 8:35 AM AKDT 6:49 PM AKDT
Nautical Twilight 7:44 AM AKDT 7:40 PM AKDT
Astronomical Twilight 6:54 AM AKDT 8:30 PM AKDT
Moon 3:38 PM AKDT (10/30) No Moon Set
Length of Visible Light 10h 13m
Length of Day
8h 40m
Waxing Crescent, 47% of the Moon is Illuminated
Oct 30
Waxing Crescent
Oct 30
First Quarter
Nov 6
Full
Nov 14
Last Quarter
Nov 22
New

Hourly Weather History & Observations

Time (AKDT) Temp. Windchill Dew Point Humidity Pressure Visibility Wind Dir Wind Speed Gust Speed Precip Events Conditions
12:53 AM 27.0 °F - 18.0 °F 69% 29.69 in 10.0 mi Calm Calm - N/A   Overcast
1:53 AM 27.0 °F - 19.0 °F 72% 29.68 in 10.0 mi Calm Calm - N/A   Overcast
2:53 AM 27.0 °F - 19.0 °F 72% 29.68 in 10.0 mi Calm Calm - N/A   Overcast
3:53 AM 25.0 °F - 18.0 °F 75% 29.67 in 10.0 mi Calm Calm - N/A   Overcast
4:53 AM 24.1 °F - 17.1 °F 75% 29.65 in 10.0 mi Calm Calm - N/A   Overcast
5:53 AM 21.9 °F - 17.1 °F 82% 29.63 in 10.0 mi Calm Calm - N/A   Overcast
6:53 AM 21.9 °F - 16.0 °F 78% 29.62 in 9.0 mi Calm Calm - N/A   Scattered Clouds
7:53 AM 24.1 °F - 18.0 °F 77% 29.60 in 8.0 mi Calm Calm - N/A   Overcast
8:53 AM 24.1 °F - 18.0 °F 77% 29.59 in 8.0 mi Calm Calm - N/A   Overcast
9:53 AM 25.0 °F 20.7 °F 19.9 °F 81% 29.57 in 10.0 mi NE 3.5 mph - N/A   Overcast
10:53 AM 26.1 °F - 21.0 °F 81% 29.55 in 10.0 mi Calm Calm - N/A   Overcast
11:53 AM 28.0 °F 24.2 °F 19.9 °F 72% 29.53 in 10.0 mi WNW 3.5 mph - N/A   Mostly Cloudy
12:53 PM 30.0 °F - 17.1 °F 59% 29.51 in 10.0 mi Calm Calm - N/A   Mostly Cloudy
1:53 PM 28.9 °F 23.9 °F 18.0 °F 64% 29.49 in 10.0 mi North 4.6 mph - N/A   Scattered Clouds
2:53 PM 30.0 °F 26.5 °F 19.0 °F 64% 29.46 in 10.0 mi NE 3.5 mph - N/A   Clear
3:53 PM 30.0 °F - 18.0 °F 61% 29.44 in 10.0 mi Calm Calm - N/A   Clear
4:53 PM 30.0 °F - 16.0 °F 56% 29.43 in 10.0 mi Calm Calm - N/A   Clear
5:53 PM 28.9 °F 25.2 °F 17.1 °F 61% 29.42 in 10.0 mi South 3.5 mph - N/A   Clear
6:53 PM 26.1 °F - 16.0 °F 66% 29.40 in 10.0 mi Calm Calm - N/A   Clear
7:53 PM 23.0 °F 17.0 °F 16.0 °F 74% 29.40 in 10.0 mi East 4.6 mph - N/A   Clear
8:53 PM 21.9 °F - 16.0 °F 78% 29.39 in 8.0 mi Calm Calm - N/A   Clear
9:53 PM 19.9 °F 13.4 °F 14.0 °F 78% 29.37 in 10.0 mi East 4.6 mph - N/A   Clear
10:53 PM 19.9 °F - 12.9 °F 74% 29.37 in 10.0 mi Calm Calm - N/A   Clear
11:53 PM 18.0 °F 11.1 °F 12.0 °F 78% 29.37 in 10.0 mi East 4.6 mph - N/A   Clear